Location: Kunchanapalle
(16.4623°N, 80.6176°E)
Time: 16:09:55
(UTC+00:00)

ALOS - Pass Details

Date: 13 August 2020
Orbit: 683 x 685 km, 97.9° (Epoch: 17 September)

Event Time Altitude Azimuth Distance (km) Brightness Sun altitude
Rises 23:19:33 0° 6° (N) 3,040 6.0 -15.0°
Reaches altitude 10° 23:21:48 10° 3° (N) 2,123 5.1 -14.5°
Maximum altitude 23:26:23 64° 283° (WNW) 755 2.2 -13.4°
Drops below altitude 10° 23:30:59 10° 202° (SSW) 2,119 4.4 -12.4°
Enters shadow 23:32:38 - 199° (SSW) 2,785 5.0 -12.0°
